Starlink 33743

operational
NORAD ID: 63440 Int'l Des: 2025-069 Owner: SPXS Country: US Constellation: starlink
LEOCIRCULAR

关于 Starlink 33743

正在加载描述...

实时位置

正在加载3D地球...

即将过境

高度历史

Altitude vs Time

uPlot chart will show altitude changes over time

两行轨道根数

1 63440U 25069H 26033.48949072 .00031977 00000-0 10866-2 0 9996
2 63440 53.1603 306.1067 0001415 94.7726 265.3436 15.30215098 47909
Epoch: Feb 2, 2026 • Age: 20 hours

当前状态

高度 494.4 km
速度 7.62 km/s
星下点 -53.06°S, 29.84°W
发射日期 Apr 4, 2025
运行时间 0.8 years
类型 internet

技术详情

分类 Payload
质量 575.00 kg
干质量 530.00 kg
总质量 575.00 kg
长度 0.30 m
直径 4.10 m
跨度 29.00 m
形状 Box + pan
制造商 SPXS
平台类型 Starlink V2MO
阶段状态 In Orbit
所有者/国家 SPXS/US

大型星座

Loading constellations...